Temp
-16 -16 -17 -17 -17 -17 -16 -16 -16 -16 -16 -16 -16 -16 -16 -16 -16 -16 -16 -16 -15 -15 -15 -15 -15 -15 -15 -15 -15 -15 -16 -16 -16 -16 -16 -15 -15 -17 -17 -17 -17 -17 -18 -17
-17 -17 -17 -17 -16 -16 -16 -16 -17 -16 -16 -16 -16 -16 -16 -16 -16 -16 -16 -16 -15 -15 -15 -15 -15 -16 -16 -16 -16 -16 -16 -16 -16 -16 -16 -16 -17 -16 -16 -16 -16 -16 -17 -18
-17 -17 -17 -17 -17 -17 -16 -17 -17 -16 -16 -16 -16 -16 -16 -16 -16 -16 -15 -15 -15 -15 -15 -16 -16 -16 -16 -16 -16 -16 -16 -15 -15 -16 -16 -16 -16 -16 -17 -17 -18 -18 -19 -19
-17 -17 -17 -17 -17 -17 -17 -17 -17 -16 -16 -16 -16 -15 -15 -15 -15 -16 -16 -15 -15 -16 -16 -16 -16 -16 -16 -16 -16 -16 -15 -15 -16 -16 -16 -16 -17 -17 -18 -19 -19 -19 -19 -19
-17 -17 -17 -17 -17 -16 -17 -17 -17 -16 -16 -16 -16 -16 -15 -15 -15 -15 -15 -15 -16 -16 -16 -16 -16 -16 -16 -15 -15 -15 -15 -16 -16 -15 -15 -16 -17 -17 -17 -18 -18 -18 -19 -19
-17 -17 -17 -17 -17 -17 -17 -16 -16 -16 -16 -16 -15 -15 -16 -15 -15 -15 -15 -15 -16 -16 -16 -16 -16 -15 -15 -15 -15 -15 -15 -15 -15 -15 -16 -16 -17 -17 -17 -18 -18 -19 -19 -19
-17 -17 -17 -17 -17 -17 -16 -16 -16 -16 -16 -15 -15 -15 -15 -15 -15 -15 -15 -15 -16 -16 -15 -15 -15 -15 -15 -15 -15 -15 -15 -16 -16 -16 -16 -17 -17 -17 -17 -18 -18 -18 -19 -19
-17 -17 -17 -17 -16 -16 -16 -16 -16 -16 -15 -16 -15 -15 -15 -15 -15 -15 -15 -15 -15 -15 -15 -15 -15 -15 -15 -15 -15 -15 -16 -16 -16 -17 -17 -17 -17 -17 -18 -18 -18 -19 -19 -19
-16 -16 -16 -16 -16 -16 -16 -16 -16 -16 -15 -15 -15 -15 -15 -15 -15 -14 -14 -15 -15 -15 -15 -15 -15 -15 -15 -15 -15 -16 -16 -16 -16 -17 -17 -18 -18 -18 -18 -19 -19 -19 -19 -19
-16 -16 -16 -16 -16 -16 -16 -15 -15 -15 -15 -15 -15 -15 -15 -15 -14 -14 -14 -14 -15 -15 -15 -15 -15 -15 -16 -16 -16 -16 -16 -16 -16 -17 -18 -18 -18 -19 -19 -19 -20 -20 -20 -20
-16 -16 -15 -15 -15 -15 -15 -15 -15 -15 -15 -15 -15 -15 -15 -15 -15 -15 -15 -15 -15 -15 -15 -15 -16 -16 -16 -16 -16 -16 -16 -16 -17 -17 -18 -18 -19 -19 -20 -20 -20 -20 -20 -20
-16 -16 -16 -16 -15 -15 -15 -15 -15 -15 -15 -15 -15 -15 -15 -15 -15 -15 -15 -15 -15 -15 -15 -15 -16 -16 -16 -16 -16 -16 -17 -17 -17 -18 -18 -19 -20 -20 -20 -20 -20 -21 -21 -21
-16 -15 -15 -15 -15 -15 -15 -15 -15 -15 -15 -15 -15 -15 -15 -15 -15 -15 -15 -15 -15 -15 -15 -16 -16 -16 -16 -16 -16 -17 -17 -18 -18 -18 -19 -19 -20 -20 -20 -21 -21 -21 -21 -22
-16 -15 -15 -15 -16 -15 -15 -15 -15 -15 -15 -15 -15 -15 -15 -15 -15 -15 -15 -15 -16 -16 -16 -16 -16 -16 -17 -17 -17 -17 -18 -18 -19 -19 -19 -20 -20 -21 -21 -21 -21 -22 -22 -22
-15 -15 -15 -15 -15 -15 -15 -15 -15 -15 -15 -15 -15 -15 -16 -15 -15 -15 -15 -16 -16 -16 -16 -16 -16 -17 -17 -17 -17 -18 -18 -19 -19 -20 -20 -20 -21 -21 -21 -22 -22 -22 -23 -22
-15 -15 -15 -15 -15 -15 -15 -15 -15 -15 -15 -15 -15 -15 -16 -16 -16 -16 -16 -16 -16 -16 -16 -17 -17 -17 -17 -18 -18 -18 -19 -20 -20 -20 -20 -21 -21 -22 -22 -23 -23 -23 -23 -23
-15 -15 -15 -15 -15 -15 -15 -15 -15 -15 -15 -16 -15 -16 -16 -16 -16 -16 -16 -16 -16 -17 -17 -17 -17 -18 -18 -18 -18 -19 -19 -20 -20 -20 -21 -21 -22 -22 -23 -23 -23 -23 -23 -24
-15 -15 -15 -15 -15 -15 -15 -15 -15 -15 -16 -16 -16 -16 -16 -16 -16 -16 -16 -17 -17 -17 -17 -18 -18 -18 -18 -19 -19 -19 -20 -20 -21 -21 -22 -22 -22 -23 -23 -23 -24 -23 -24 -24
-15 -15 -15 -15 -15 -15 -15 -15 -15 -15 -15 -16 -16 -16 -16 -16 -16 -17 -17 -17 -17 -18 -18 -18 -18 -19 -19 -19 -19 -20 -20 -21 -21 -22 -22 -22 -23 -23 -23 -24 -24 -24 -24 -25
-15 -15 -15 -15 -15 -14 -15 -15 -15 -15 -15 -15 -16 -16 -16 -16 -17 -17 -17 -18 -18 -18 -18 -18 -19 -19 -19 -19 -20 -20 -21 -21 -21 -22 -22 -23 -23 -24 -24 -24 -24 -24 -25 -26
-15 -15 -15 -15 -15 -14 -15 -15 -15 -15 -15 -16 -16 -16 -17 -17 -17 -18 -18 -18 -18 -18 -19 -19 -19 -19 -20 -20 -20 -21 -21 -21 -22 -22 -23 -23 -24 -24 -25 -24 -24 -25 -25 -27
-15 -15 -15 -15 -15 -14 -15 -15 -15 -15 -16 -16 -16 -16 -17 -17 -18 -18 -18 -18 -19 -19 -19 -19 -20 -20 -20 -20 -20 -21 -21 -22 -22 -23 -23 -24 -24 -25 -24 -25 -25 -26 -27 -28
-15 -15 -15 -15 -15 -15 -15 -15 -15 -15 -16 -16 -17 -17 -17 -17 -18 -18 -18 -19 -19 -19 -20 -19 -20 -20 -20 -21 -21 -21 -22 -22 -23 -23 -23 -24 -24 -24 -25 -25 -26 -27 -28 -29
-15 -15 -15 -15 -16 -15 -15 -16 -16 -16 -16 -17 -17 -17 -18 -18 -18 -19 -19 -19 -19 -19 -20 -20 -20 -20 -20 -21 -22 -21 -22 -23 -23 -23 -24 -24 -24 -25 -25 -26 -27 -28 -29 -30
-15 -15 -16 -15 -16 -16 -16 -17 -17 -17 -17 -17 -18 -18 -18 -19 -19 -19 -19 -19 -19 -20 -20 -20 -20 -21 -21 -21 -22 -22 -22 -22 -23 -24 -24 -24 -24 -26 -26 -27 -28 -29 -29 -31
-16 -15 -16 -16 -17 -17 -17 -17 -17 -17 -18 -18 -18 -18 -19 -19 -19 -19 -19 -19 -20 -20 -20 -21 -21 -21 -21 -21 -21 -22 -22 -23 -23 -24 -24 -25 -26 -27 -28 -28 -29 -30 -30 -32
Height
5777 5781 5784 5785 5788 5791 5794 5797 5798 5799 5800 5802 5803 5804 5805 5805 5805 5806 5806 5806 5806 5806 5806 5807 5806 5806 5805 5804 5803 5802 5801 5798 5796 5793 5788 5784 5779 5775 5772 5768 5763 5759 5754 5750
5779 5780 5785 5786 5789 5791 5793 5795 5797 5800 5801 5803 5804 5804 5805 5805 5804 5804 5805 5805 5805 5805 5805 5804 5803 5802 5801 5799 5798 5796 5794 5792 5788 5785 5780 5776 5774 5770 5764 5758 5751 5746 5742 5737
5779 5782 5784 5786 5789 5791 5793 5795 5797 5799 5800 5802 5803 5804 5804 5804 5804 5804 5804 5804 5804 5803 5803 5801 5799 5798 5796 5795 5793 5791 5789 5786 5782 5778 5774 5770 5766 5759 5752 5747 5742 5738 5734 5729
5779 5782 5784 5786 5788 5790 5792 5794 5795 5798 5799 5802 5802 5806 5802 5802 5802 5802 5801 5801 5800 5799 5798 5797 5795 5794 5792 5790 5788 5785 5781 5778 5775 5772 5767 5761 5754 5748 5744 5739 5734 5728 5724 5719
5780 5781 5783 5785 5787 5789 5790 5792 5794 5796 5798 5799 5800 5801 5798 5799 5799 5798 5798 5796 5795 5794 5793 5791 5790 5787 5785 5783 5781 5779 5775 5772 5769 5763 5757 5752 5746 5741 5735 5729 5724 5718 5712 5705
5778 5780 5781 5783 5784 5786 5788 5791 5793 5794 5795 5795 5796 5797 5797 5795 5794 5793 5792 5791 5790 5788 5787 5785 5784 5782 5780 5778 5776 5773 5770 5765 5760 5754 5749 5744 5738 5733 5728 5722 5715 5708 5700 5693
5776 5778 5779 5781 5781 5783 5786 5789 5790 5791 5790 5792 5792 5791 5792 5790 5788 5786 5786 5785 5784 5783 5781 5780 5778 5776 5775 5772 5769 5765 5761 5756 5752 5747 5742 5736 5730 5724 5718 5711 5704 5696 5688 5680
5774 5776 5776 5778 5779 5781 5783 5785 5787 5786 5787 5788 5786 5785 5786 5784 5782 5781 5781 5781 5779 5778 5777 5776 5774 5771 5769 5765 5761 5758 5753 5749 5745 5740 5734 5727 5721 5714 5706 5698 5690 5681 5673 5665
5770 5771 5773 5775 5776 5778 5779 5781 5783 5782 5782 5782 5782 5781 5779 5778 5778 5778 5778 5777 5776 5775 5773 5771 5768 5766 5762 5759 5755 5750 5746 5742 5737 5731 5723 5715 5708 5701 5693 5685 5677 5668 5660 5653
5768 5769 5770 5771 5773 5774 5776 5778 5779 5779 5778 5778 5778 5777 5776 5775 5775 5775 5775 5774 5773 5771 5769 5766 5763 5760 5756 5752 5747 5743 5739 5733 5726 5719 5713 5705 5697 5689 5681 5673 5666 5657 5649 5640
5764 5766 5768 5768 5770 5771 5772 5773 5775 5775 5776 5775 5776 5776 5774 5773 5773 5772 5772 5770 5769 5766 5764 5761 5757 5753 5749 5744 5739 5735 5730 5722 5715 5708 5701 5694 5686 5678 5669 5661 5653 5643 5635 5626
5760 5761 5763 5765 5766 5767 5769 5770 5771 5772 5774 5773 5773 5775 5772 5772 5771 5769 5768 5766 5764 5761 5758 5754 5750 5746 5741 5736 5731 5725 5718 5711 5704 5697 5689 5681 5674 5666 5658 5649 5640 5631 5621 5611
5756 5757 5760 5761 5764 5765 5766 5767 5769 5770 5771 5771 5771 5771 5769 5768 5767 5766 5764 5761 5758 5754 5751 5746 5742 5737 5732 5726 5720 5714 5707 5700 5693 5685 5678 5670 5662 5654 5646 5636 5627 5617 5607 5597
5752 5754 5756 5759 5760 5761 5763 5764 5765 5766 5767 5767 5768 5765 5764 5762 5761 5759 5756 5753 5750 5746 5742 5737 5732 5727 5720 5714 5709 5703 5696 5689 5682 5674 5666 5659 5650 5642 5633 5623 5613 5603 5593 5582
5749 5751 5753 5755 5756 5758 5760 5761 5762 5762 5763 5762 5763 5762 5758 5754 5754 5752 5749 5745 5742 5737 5733 5728 5723 5716 5709 5704 5698 5692 5684 5677 5670 5663 5655 5647 5638 5629 5620 5610 5600 5589 5578 5565
5746 5749 5750 5751 5753 5755 5756 5757 5759 5758 5758 5757 5755 5756 5751 5748 5745 5743 5740 5736 5732 5728 5723 5717 5711 5705 5699 5693 5687 5680 5673 5666 5659 5650 5642 5633 5625 5616 5606 5596 5586 5574 5561 5547
5742 5745 5747 5749 5750 5750 5751 5755 5754 5753 5752 5750 5748 5746 5743 5739 5737 5734 5730 5726 5722 5717 5711 5706 5700 5694 5687 5681 5675 5668 5660 5653 5645 5638 5629 5620 5612 5602 5593 5582 5572 5560 5545 5531
5740 5742 5743 5745 5745 5744 5748 5749 5747 5746 5745 5742 5740 5737 5733 5730 5726 5723 5718 5714 5710 5704 5699 5694 5687 5681 5675 5668 5662 5655 5648 5640 5633 5625 5615 5607 5598 5589 5579 5568 5557 5544 5530 5514
5736 5737 5738 5738 5739 5740 5740 5740 5740 5738 5738 5733 5730 5727 5723 5719 5715 5711 5705 5702 5697 5692 5687 5681 5675 5669 5663 5657 5650 5643 5635 5627 5620 5611 5603 5594 5585 5575 5565 5554 5541 5528 5513 5497
5731 5732 5733 5733 5732 5732 5733 5732 5731 5729 5726 5723 5721 5717 5712 5707 5703 5698 5693 5689 5684 5679 5674 5668 5663 5657 5651 5644 5638 5630 5623 5615 5607 5598 5590 5580 5571 5562 5551 5539 5526 5512 5497 5483
5727 5727 5727 5726 5725 5725 5724 5723 5721 5719 5718 5711 5707 5704 5700 5696 5691 5687 5681 5677 5673 5667 5662 5657 5651 5645 5639 5632 5625 5617 5609 5602 5593 5585 5577 5567 5557 5547 5536 5524 5511 5497 5483 5470
5722 5721 5721 5720 5717 5715 5715 5712 5710 5706 5702 5699 5694 5690 5686 5682 5678 5673 5669 5665 5660 5655 5650 5644 5638 5631 5625 5618 5610 5603 5596 5589 5580 5572 5562 5552 5543 5532 5521 5509 5495 5481 5469 5457
5715 5714 5713 5712 5710 5706 5702 5700 5697 5694 5691 5687 5683 5678 5675 5670 5666 5662 5657 5653 5648 5642 5636 5630 5623 5617 5611 5604 5598 5590 5582 5574 5566 5557 5548 5539 5528 5518 5506 5494 5481 5469 5457 5446
5707 5705 5704 5702 5700 5695 5691 5689 5686 5683 5679 5676 5672 5668 5664 5659 5655 5651 5646 5641 5635 5629 5623 5617 5611 5605 5598 5591 5585 5578 5568 5559 5550 5541 5533 5524 5514 5503 5492 5481 5470 5457 5446 5435
5699 5694 5691 5690 5687 5684 5682 5679 5675 5671 5668 5664 5660 5656 5652 5648 5644 5638 5633 5628 5622 5616 5610 5605 5599 5592 5584 5576 5568 5559 5553 5546 5536 5527 5517 5508 5498 5490 5479 5468 5456 5445 5435 5425
5686 5682 5680 5679 5676 5673 5671 5668 5665 5662 5658 5654 5649 5645 5641 5636 5631 5626 5620 5615 5609 5604 5597 5591 5584 5577 5569 5561 5553 5545 5537 5530 5521 5512 5501 5492 5484 5475 5465 5455 5444 5434 5424 5416
Wind_Speed
16 19 12 9 13 13 10 14 10 9 12 16 13 10 6 7 8 10 8 11 14 12 11 10 13 16 18 20 19 17 20 25 30 36 36 37 39 46 48 44 38 35 35 36
20 19 15 13 11 9 9 15 12 10 14 11 10 8 8 11 11 11 9 10 11 9 9 12 15 17 19 20 20 23 28 33 34 37 40 41 45 48 47 45 44 44 45 47
12 14 11 11 11 6 7 16 9 6 4 8 8 9 8 7 7 7 7 9 11 12 12 13 14 15 19 22 22 26 32 30 32 35 38 41 42 43 46 48 49 48 48 49
17 15 13 12 12 12 8 20 15 9 10 6 8 10 11 10 9 10 11 12 13 14 13 13 17 18 19 20 21 23 23 26 31 34 35 38 42 45 47 49 50 52 53 52
20 12 10 14 18 16 18 17 17 13 13 13 13 15 19 14 11 13 14 15 15 14 14 17 17 19 17 16 17 19 22 27 30 33 37 40 44 46 48 50 52 52 53 55
23 21 16 17 16 13 17 14 15 16 19 22 22 20 18 15 15 17 18 17 14 14 17 16 15 13 13 16 19 22 25 29 34 38 42 45 48 51 52 53 55 56 56 57
25 25 22 17 14 18 16 14 16 17 18 18 18 22 19 18 18 18 18 16 15 15 14 11 11 12 15 19 22 25 28 32 37 41 45 47 50 51 51 54 56 58 58 58
24 23 20 16 15 18 21 20 20 21 20 17 18 20 19 17 18 18 16 13 11 10 9 11 14 16 20 24 27 29 31 34 38 41 44 48 50 52 54 57 59 60 61 61
22 22 18 18 18 19 18 20 19 21 20 19 17 12 14 15 15 12 8 8 8 10 12 14 17 21 25 28 31 33 35 38 41 43 47 53 56 56 58 59 61 61 61 61
16 18 18 18 19 21 21 19 19 18 16 13 6 6 6 8 6 8 9 9 12 14 16 19 22 26 29 32 35 36 38 42 44 47 48 54 57 59 59 61 62 60 61 64
16 17 18 19 18 18 18 16 15 13 11 7 6 6 8 9 11 12 13 16 18 19 21 24 28 30 34 37 39 40 42 46 49 52 54 57 59 61 61 62 62 63 65 68
18 18 17 18 18 16 14 13 13 13 11 10 11 10 14 13 15 18 19 21 23 25 28 31 34 37 40 43 45 45 47 50 53 56 58 60 62 62 62 64 64 66 70 74
20 21 19 19 16 15 14 14 14 14 13 11 12 13 16 17 19 21 22 24 28 30 33 36 39 43 46 49 50 51 52 54 56 58 60 62 63 62 65 65 67 70 74 78
18 17 17 17 18 19 18 17 17 16 14 14 12 18 20 23 23 25 28 30 33 35 39 42 45 48 51 53 54 55 56 57 58 59 61 63 63 64 66 67 69 74 77 80
18 16 17 18 20 22 21 21 20 19 20 20 20 21 25 31 30 32 34 36 39 41 43 45 48 51 54 55 56 57 58 58 59 60 63 63 64 65 66 68 73 76 79 83
19 17 18 20 20 23 24 23 22 23 24 26 29 26 32 35 37 38 40 42 43 45 47 49 51 54 57 57 58 58 57 58 60 62 63 64 64 64 67 70 76 78 83 85
20 18 19 20 22 24 26 22 25 28 29 32 35 36 38 41 43 46 47 48 49 50 51 51 53 55 57 58 58 56 57 58 60 62 64 63 63 66 68 74 77 82 85 87
16 18 20 20 23 28 23 24 28 32 34 38 41 44 47 49 51 51 52 53 52 52 52 52 54 56 57 56 54 55 57 59 62 62 62 63 65 67 71 76 79 85 86 91
16 19 21 24 25 27 29 29 32 35 38 42 45 48 50 52 54 53 55 53 53 53 53 53 54 55 53 53 54 56 60 61 63 61 62 63 65 68 72 76 82 86 89 89
15 18 21 23 26 27 26 29 32 35 39 41 43 46 49 51 52 53 54 53 53 52 52 52 51 51 52 54 55 56 57 60 61 62 64 65 69 72 75 79 85 88 89 82
14 16 19 22 25 27 30 31 33 37 41 43 45 47 48 50 51 50 50 49 48 48 47 47 49 51 54 55 55 56 58 61 61 64 67 69 72 74 80 85 86 87 84 76
18 21 22 25 29 33 34 37 40 42 44 45 47 47 46 46 45 45 44 44 43 43 45 49 52 55 54 55 59 57 60 61 64 67 71 70 75 76 85 86 85 83 76 68
25 27 29 31 33 38 42 44 44 45 43 43 42 43 42 42 43 42 42 42 44 49 51 53 54 53 54 56 57 56 61 62 66 70 72 73 77 82 87 86 83 77 68 60
30 33 34 36 37 42 45 44 42 41 40 40 40 40 41 41 41 43 46 49 51 52 56 53 53 57 61 59 55 59 61 64 68 70 73 77 80 85 86 84 78 70 60 52
32 36 38 41 41 42 39 38 38 39 39 40 40 41 42 44 46 48 50 52 54 54 52 52 58 56 57 62 62 56 62 70 72 72 76 78 79 82 82 78 69 59 53 44
36 40 41 39 37 36 35 37 38 40 41 41 43 44 45 47 49 51 50 49 49 51 53 56 56 58 58 54 69 59 64 71 73 76 76 74 78 77 73 67 60 54 47 39
Wind_Direction
163 175 163 178 171 172 192 204 213 197 192 181 178 193 214 216 243 250 242 248 256 253 260 265 270 277 285 287 293 294 305 305 300 308 306 305 312 312 309 307 306 301 297 293
168 173 182 173 173 187 207 199 191 192 178 175 176 186 220 229 233 235 238 245 254 266 275 277 283 282 286 290 293 295 303 308 308 306 307 308 304 299 296 300 307 309 309 309
166 175 195 189 182 195 211 183 198 242 226 202 199 203 194 197 217 231 237 254 265 277 269 273 274 286 285 290 289 290 295 300 311 316 312 304 301 310 315 315 312 309 306 303
178 201 208 209 217 219 222 204 204 221 202 211 212 232 215 213 235 254 258 267 271 268 270 268 273 283 287 293 290 300 311 314 313 307 311 318 320 318 313 309 305 301 298 297
203 204 210 242 240 237 246 230 218 220 232 232 244 236 244 239 255 268 265 268 269 270 273 274 287 294 304 305 306 310 315 311 311 318 323 320 318 315 313 311 308 306 305 303
215 226 247 267 237 228 239 232 232 250 256 252 250 255 257 247 268 267 267 265 262 266 271 279 285 296 304 307 308 312 314 315 318 320 318 316 315 312 310 309 310 309 306 305
226 236 246 261 238 230 225 239 261 259 249 252 252 254 251 262 269 260 254 255 257 262 267 274 287 300 307 307 314 317 318 318 316 314 312 311 307 306 308 309 309 309 309 310
233 243 241 225 226 233 235 251 254 258 261 265 265 262 266 263 257 253 252 252 248 253 268 278 288 301 310 313 314 316 315 312 311 310 309 308 310 309 308 310 313 313 312 311
228 234 231 236 238 241 238 241 252 260 266 267 271 272 263 254 250 256 234 236 255 273 281 289 298 306 308 309 310 311 309 305 306 309 310 313 312 311 310 312 314 313 312 311
222 231 232 233 235 238 241 246 249 255 260 267 263 235 252 260 248 252 258 270 280 287 292 295 299 302 304 306 305 305 303 303 307 309 308 309 311 311 311 313 313 312 311 311
232 232 230 231 236 236 234 236 235 239 246 242 207 230 239 256 264 270 280 286 287 287 291 293 295 297 299 300 301 302 304 307 310 310 310 310 311 311 312 312 312 312 311 310
233 236 236 236 233 222 216 221 224 223 225 231 231 237 256 260 271 279 283 285 288 290 291 292 294 295 296 297 299 303 305 308 308 309 309 310 311 311 311 312 312 312 312 313
236 236 230 229 221 224 223 217 217 221 231 240 248 263 263 271 277 283 288 289 288 291 292 293 293 294 296 299 303 302 302 304 307 308 309 310 309 310 312 313 312 312 314 314
227 219 222 218 223 225 218 221 224 233 242 251 268 273 280 280 284 289 291 292 292 294 294 294 296 296 298 300 302 302 301 302 307 309 309 309 310 311 313 312 312 314 316 319
226 222 221 224 228 228 229 229 234 245 255 265 270 276 283 284 287 287 288 290 292 293 295 296 296 295 297 300 301 302 301 302 306 307 308 310 310 311 311 312 315 317 320 322
228 223 228 231 235 236 240 245 251 260 266 271 275 280 279 284 286 289 291 293 293 293 296 296 296 295 297 299 301 302 301 302 306 308 310 309 310 311 312 314 316 319 322 321
222 224 235 239 244 249 252 259 261 263 269 274 277 281 283 284 287 290 292 292 294 296 296 296 294 295 297 299 301 302 303 305 306 308 308 309 310 313 313 316 319 322 322 321
230 238 246 249 252 259 269 263 265 268 270 274 278 281 283 287 289 291 292 293 295 295 295 294 295 297 299 301 302 302 304 305 307 308 307 308 311 314 315 317 321 322 322 324
239 246 252 256 258 266 269 269 268 271 272 274 278 281 284 286 289 291 291 293 294 295 296 297 298 299 300 301 303 303 305 307 308 306 306 308 313 317 319 321 322 322 324 327
254 256 259 266 268 273 274 274 275 276 277 278 279 282 284 285 287 290 292 294 296 297 298 298 300 301 302 304 304 304 305 305 305 307 307 308 314 319 322 321 321 323 327 327
270 271 271 273 276 281 280 283 283 281 284 286 286 287 287 289 290 293 295 296 297 297 299 302 303 303 303 303 303 303 306 308 307 308 310 309 315 321 322 322 320 327 328 325
286 285 284 284 285 286 289 289 287 288 288 291 291 292 294 295 296 296 298 299 301 301 302 302 302 302 304 306 306 301 305 309 306 310 310 306 310 316 322 320 324 328 325 321
285 288 286 287 287 287 287 287 290 291 291 290 292 293 296 297 299 301 301 301 301 302 302 303 303 304 305 304 305 298 305 309 307 305 303 305 301 312 322 322 326 326 322 320
283 284 285 285 284 284 287 290 290 289 291 293 294 295 296 297 299 300 300 301 301 302 302 302 304 306 307 301 299 290 292 298 296 295 296 295 301 320 320 323 326 324 321 320
285 285 285 286 284 287 288 287 288 290 292 291 293 294 295 297 299 301 302 302 302 302 302 305 308 300 310 299 292 292 286 292 293 295 294 295 313 317 321 324 324 321 321 320
285 284 285 287 285 285 287 286 288 288 289 291 293 295 298 299 300 301 302 303 303 303 304 304 306 302 298 296 284 280 289 294 295 290 294 307 315 321 324 324 323 322 322 319